{"data":{"norad_id":55630,"epoch":"2026-05-25T01:01:13.317600Z","epoch_age_seconds":71666,"freshness":"FRESH","line1":"1 55630U 23021C   26145.04251525  .00000272  00000+0  30623-4 0  9997","line2":"2 55630  69.9999  12.0052 0002524 269.9849  90.1021 14.98331491179735","mean_motion":14.98331491,"eccentricity":0.0002524,"inclination_deg":69.9999,"raan_deg":12.0052,"arg_perigee_deg":269.9849,"mean_anomaly_deg":90.1021,"bstar":3.0623e-5,"rev_number":17973,"period_min":96.106903488956,"perigee_km":570.29705263182,"apogee_km":573.80550767564,"semimajor_km":6950.1882801537,"source":"CELESTRAK","updated_at":"2026-05-25T13:38:17.846808Z"}}